STARLINK-11254, 60731

Orbit data source: Space-Track

STARLINK-11254, 60731 is a payload satellite owned by SpaceX/Seattle (US) in LEO that was launched on Wed, 28 Aug 2024 UTC via an FALCON 9 launch vehicle from the Air Force Eastern Test Range (AFETR). Payloads include a variety of satellites, spacecraft, and rockets equipped with specific instruments for various scientific and technological missions. These include communications satellites like Starlink; space stations such as the ISS; scientific satellites like the Hubble; Earth observation satellites from companies like Planet Labs, Umbra, and HawkEye 360; GPS; miniature CubeSats for education and research; and military/defense satellites.

Loading next visibility...
STARLINK-11254 details
Identifier
60731, 2024-152M
Orbit
LEO
Last TLE update19 hours ago
Origin
Flag of USSpaceX/Seattle (US)
ManufacturerSpaceX/Seattle
MissionOperational spacecraft
Bus & MotorSTARLINK V2M, Unknown motor
Mass730 kg wet, ~700 kg dry
Launch date (UTC)
2024-08-28 (4 months ago)
Launch vehicle
FALCON 9
Launch site
Air Force Eastern Test Range (AFETR)
Object type
Payload
Rocket body
Debris
Shape & HBRUnknown
Radar Cross SectionLarge (>1 m²)

Expand to show TLE details & history

TLE from 19 hours ago
0 STARLINK-11254
1 60731U 24152M   24355.81516471 -.00005647  00000-0 -41820-4 0  9996
2 60731  53.1579 144.0952 0001377  83.6776 276.4398 15.69688057 19137
Epoch: 2024-12-20T19:33Z
Definitive object data (Epoch: 2024-12-20T19:33:50.23Z)
Latitude-0.0001°
Longitude120.76057°
Altitude360.6 km
Speed7.694 km/s
True Right ascension09h 36m 22s
True Declination0° 00' 00"
Sunlit
Object was in full shadow at TLE epoch
Visualization TLE readout
Latitude48.26559°
Longitude173.57041°
Altitude364.337 km
Speed7.697 km/s
Apparent Right ascension02h 17m 54s
Apparent Declination65° 50' 59"
Sunlit
Object is in daylight
Visualization observer readout
Local Sidereal Time13:13:33
Azimuth353.209° N
Elevation16.499°
Doppler factor1
Orbital elements
Apogee altitude360.978 km
Perigee altitude359.123 km
Semi-major axis6,738.188 km
Eccentricity0.0001377
Inclination53.1579°
RAAN144.0952°
Arg. of periapsis83.6776°
True anomaly276.42412°
Mean anomaly276.4398°
Eccentric anomaly276.43196°
Mean motion3.924 °/min
BSTAR-0.00004182
Orbital period91.74 mins
Loading maneuver chart data...
Loading historical data...
Loading historical data...
Loading historical data...
Loading historical data...
Loading historical data...
Loading historical data...
Loading historical data...

STARLINK-11254 Visibility forecast

Observer location: undefined°, undefined

Span
Click to sort rows by Start time (UTC) header in descending order
Start Az.
Max El. time (UTC)
Max El. Az.
Max El.
End time (UTC)
End Az.
4 mins2024-12-21 18:58:28.239Z344.154° N2024-12-21 18:59:28.239Z16.863° NNE27.902°2024-12-21 19:02:28.239Z100.52° ESE
4 mins2024-12-22 13:02:28.239Z265.163° W2024-12-22 13:04:28.239Z343.408° N30.917°2024-12-22 13:06:28.239Z32.815° NE
|